WM0F Weather Reports


time (UTC)temp
C
wind
direction
speed
KPH
gust
KPH
rain 1hr
cm
rain 24hr
cm
rain mn
cm
humidity
%
barometer
mb
20260505004507 12 262 8.0 22.5 0.00 0.00 0.00 68 1011.8
20260505004003 12 299 8.0 20.9 0.00 0.00 0.00 65 1011.9
20260505003503 13 291 8.0 17.7 0.00 0.00 0.00 63 1011.8
20260505003004 13 285 6.4 17.7 0.00 0.00 0.00 62 1011.8
20260505002502 13 272 6.4 17.7 0.00 0.00 0.00 61 1011.7
20260505002003 13 320 4.8 14.5 0.00 0.00 0.00 61 1011.7
20260505001503 13 285 4.8 12.9 0.00 0.00 0.00 61 1011.6
20260505001006 13 2 0.0 6.4 0.00 0.00 0.00 57 1011.5
20260505000505 14 8 1.6 6.4 0.00 0.00 0.00 56 1011.4
20260505000007 14 8 0.0 8.0 0.00 0.00 0.00 56 1011.3
20260504235503 14 8 3.2 11.3 0.00 0.00 0.00 55 1011.5
20260504235002 14 22 1.6 11.3 0.00 0.00 0.00 52 1011.5
20260504234504 14 337 3.2 16.1 0.00 0.00 0.00 53 1011.5
20260504234002 14 292 6.4 16.1 0.00 0.00 0.00 51 1011.4
20260504233502 15 5 3.2 19.3 0.00 0.00 0.00 49 1011.3
20260504233006 15 335 8.0 19.3 0.00 0.00 0.00 52 1011.5
20260504232505 15 306 1.6 17.7 0.00 0.00 0.00 51 1011.7
20260504232005 16 264 8.0 20.9 0.00 0.00 0.00 45 1011.3
20260504231507 16 289 11.3 20.9 0.00 0.00 0.00 41 1011.1
20260504231003 16 254 0.0 12.9 0.00 0.00 0.00 41 1011.0
20260504230505 16 251 1.6 12.9 0.00 0.00 0.00 41 1010.8
20260504230006 16 272 4.8 17.7 0.00 0.00 0.00 40 1010.7
20260504225506 16 285 4.8 19.3 0.00 0.00 0.00 40 1010.5
20260504225003 17 247 8.0 19.3 0.00 0.00 0.00 39 1010.3
20260504224516 17 280 4.8 19.3 0.00 0.00 0.00 39 1010.1
20260504224005 17 299 9.7 19.3 0.00 0.00 0.00 38 1010.1
20260504223503 17 309 8.0 24.1 0.00 0.00 0.00 37 1010.0
20260504223010 17 314 9.7 24.1 0.00 0.00 0.00 37 1010.0
20260504222503 18 330 11.3 22.5 0.00 0.00 0.00 36 1010.1
20260504222003 18 280 8.0 22.5 0.00 0.00 0.00 37 1010.0
20260504221506 18 333 8.0 19.3 0.00 0.00 0.00 37 1009.9
20260504221005 18 334 8.0 19.3 0.00 0.00 0.00 36 1010.0
20260504220503 18 321 8.0 19.3 0.00 0.00 0.00 34 1010.1
20260504220006 18 23 3.2 25.7 0.00 0.00 0.00 34 1010.1
20260504215504 18 66 3.2 25.7 0.00 0.00 0.00 36 1010.2
20260504215004 18 339 4.8 11.3 0.00 0.00 0.00 33 1010.4
20260504214508 18 6 4.8 11.3 0.00 0.00 0.00 35 1010.3
20260504214003 18 4 1.6 11.3 0.00 0.00 0.00 36 1010.5
20260504213506 17 343 0.0 8.0 0.00 0.00 0.00 37 1010.6
20260504213020 17 343 0.0 8.0 0.00 0.00 0.00 37 1010.7
20260504212504 17 347 3.2 9.7 0.00 0.00 0.00 38 1010.7
20260504212003 17 316 1.6 17.7 0.00 0.00 0.00 38 1010.8
20260504211528 17 340 6.4 22.5 0.00 0.00 0.00 37 1011.0
20260504211004 17 320 6.4 22.5 0.00 0.00 0.00 38 1011.0
20260504210504 17 339 11.3 25.7 0.00 0.00 0.00 37 1011.1
20260504210010 17 340 12.9 30.6 0.00 0.00 0.00 36 1011.1
20260504205504 17 347 11.3 38.6 0.00 0.00 0.00 36 1010.9
20260504205005 18 329 17.7 40.2 0.00 0.00 0.00 34 1010.9
20260504204515 18 335 22.5 40.2 0.00 0.00 0.00 34 1010.4
20260504204003 18 316 22.5 35.4 0.00 0.00 0.00 32 1010.3
20260504203503 18 335 16.1 33.8 0.00 0.00 0.00 31 1010.1
20260504203013 18 335 14.5 37.0 0.00 0.00 0.00 32 1010.0
20260504202503 18 20 11.3 38.6 0.00 0.00 0.00 32 1009.7
20260504202003 18 12 19.3 38.6 0.00 0.00 0.00 33 1009.6
20260504201513 17 323 14.5 37.0 0.00 0.00 0.00 32 1009.9
20260504201004 17 329 11.3 37.0 0.00 0.00 0.00 34 1009.8
20260504200504 17 327 19.3 41.8 0.00 0.00 0.00 32 1010.0
20260504200016 18 336 16.1 46.7 0.00 0.00 0.00 31 1010.1
20260504195503 19 339 19.3 46.7 0.00 0.00 0.00 28 1010.1
20260504195005 20 344 19.3 37.0 0.00 0.00 0.00 25 1009.9
20260504194513 20 322 19.3 33.8 0.00 0.00 0.00 22 1009.6
20260504194005 20 327 9.7 35.4 0.00 0.00 0.00 22 1009.5
20260504193505 21 344 14.5 35.4 0.00 0.00 0.00 21 1009.5
20260504193003 21 354 12.9 29.0 0.00 0.00 0.00 21 1009.4
20260504192507 21 312 9.7 32.2 0.00 0.00 0.00 21 1009.4
20260504192004 22 280 11.3 32.2 0.00 0.00 0.00 23 1009.3
20260504191507 22 272 14.5 38.6 0.00 0.00 0.00 23 1009.4
20260504191003 22 280 19.3 38.6 0.00 0.00 0.00 24 1009.4
20260504190503 22 258 16.1 29.0 0.00 0.00 0.00 24 1009.4
20260504190002 22 252 9.7 35.4 0.00 0.00 0.00 25 1009.4
20260504185504 22 290 17.7 35.4 0.00 0.00 0.00 24 1009.5
20260504185002 22 249 17.7 35.4 0.00 0.00 0.00 24 1009.5
20260504184503 22 285 8.0 20.9 0.00 0.00 0.00 25 1009.4
20260504184004 22 256 4.8 14.5 0.00 0.00 0.00 27 1009.5
20260504183502 21 248 1.6 20.9 0.00 0.00 0.00 26 1009.5
20260504183009 21 247 6.4 20.9 0.00 0.00 0.00 24 1009.6
20260504182503 21 244 4.8 12.9 0.00 0.00 0.00 27 1009.6
20260504182005 21 241 3.2 9.7 0.00 0.00 0.00 26 1009.6
20260504181505 22 247 3.2 9.7 0.00 0.00 0.00 26 1009.6
20260504181005 22 238 1.6 9.7 0.00 0.00 0.00 27 1009.7
20260504180505 21 253 1.6 6.4 0.00 0.00 0.00 26 1009.7
20260504180004 21 229 1.6 14.5 0.00 0.00 0.00 27 1009.8
20260504175503 21 214 0.0 14.5 0.00 0.00 0.00 27 1009.8
20260504175004 21 203 1.6 14.5 0.00 0.00 0.00 28 1009.9
20260504174503 21 270 0.0 6.4 0.00 0.00 0.00 28 1009.9
20260504174003 21 253 1.6 8.0 0.00 0.00 0.00 28 1010.0
20260504173504 20 262 0.0 8.0 0.00 0.00 0.00 27 1010.0
20260504173004 20 234 1.6 8.0 0.00 0.00 0.00 27 1010.1
20260504172504 20 231 0.0 14.5 0.00 0.00 0.00 27 1010.1
20260504172004 20 270 0.0 14.5 0.00 0.00 0.00 27 1010.1
20260504171506 20 272 3.2 14.5 0.00 0.00 0.00 26 1010.2
20260504171007 20 248 1.6 14.5 0.00 0.00 0.00 27 1010.3
20260504170504 20 253 6.4 16.1 0.00 0.00 0.00 26 1010.3
20260504151003 17 255 1.6 8.0 0.00 0.00 0.00 29 1010.5
20260504150504 16 241 0.0 4.8 0.00 0.00 0.00 31 1010.5
20260504141006 11 316 0.0 1.6 0.00 0.00 0.00 42 1010.8
20260504140506 11 293 0.0 1.6 0.00 0.00 0.00 42 1010.8
20260504130506 7 81 0.0 1.6 0.00 0.00 0.00 47 1010.7
20260504110503 7 318 0.0 1.6 0.00 0.00 0.00 43 1011.1
20260504100503 7 318 0.0 1.6 0.00 0.00 0.00 43 1011.2
20260504082004 9 318 0.0 0.0 0.00 0.00 0.00 41 1011.8
20260504081520 9 319 0.0 0.0 0.00 0.00 0.00 41 1011.8
20260504081004 9 318 0.0 0.0 0.00 0.00 0.00 42 1011.9
20260504080505 10 318 0.0 0.0 0.00 0.00 0.00 42 1012.0
20260504050507 13 323 0.0 0.0 0.00 0.00 0.00 35 1013.2
20260504045504 15 323 0.0 3.2 0.00 0.00 0.00 34 1013.1
20260504045004 15 323 0.0 6.4 0.00 0.00 0.00 33 1013.1
20260504044522 15 323 1.6 8.0 0.00 0.00 0.00 32 1013.1
20260504044006 15 323 0.0 9.7 0.00 0.00 0.00 31 1013.1
20260504043509 15 322 1.6 11.3 0.00 0.00 0.00 31 1013.1
20260504043024 15 321 4.8 11.3 0.00 0.00 0.00 30 1013.0
20260504042504 15 360 3.2 9.7 0.00 0.00 0.00 30 1013.0
20260504042010 15 1 1.6 16.1 0.00 0.00 0.00 30 1012.9
20260504041524 15 17 6.4 17.7 0.00 0.00 0.00 29 1013.1
20260504041006 15 12 4.8 17.7 0.00 0.00 0.00 29 1013.1
20260504040508 15 19 4.8 14.5 0.00 0.00 0.00 30 1012.9
20260504040025 15 321 6.4 14.5 0.00 0.00 0.00 30 1012.9
20260504035508 15 321 6.4 14.5 0.00 0.00 0.00 30 1012.7
20260504035006 15 320 4.8 14.5 0.00 0.00 0.00 30 1012.7
20260504034526 15 312 4.8 12.9 0.00 0.00 0.00 30 1012.7
20260504034009 15 295 3.2 8.0 0.00 0.00 0.00 31 1012.8
20260504033504 15 245 0.0 3.2 0.00 0.00 0.00 32 1012.4
20260504033024 15 243 0.0 0.0 0.00 0.00 0.00 33 1012.4
20260504032508 15 243 0.0 0.0 0.00 0.00 0.00 34 1012.4
20260504032004 15 243 0.0 0.0 0.00 0.00 0.00 32 1012.4
20260504031523 15 243 0.0 0.0 0.00 0.00 0.00 32 1012.4
20260504031009 15 243 0.0 0.0 0.00 0.00 0.00 32 1012.4
20260504030509 15 243 0.0 0.0 0.00 0.00 0.00 32 1012.4
20260504030017 16 243 0.0 0.0 0.00 0.00 0.00 32 1012.4
20260504025507 16 243 0.0 0.0 0.00 0.00 0.00 30 1012.3
20260504025011 16 243 0.0 0.0 0.00 0.00 0.00 29 1012.3
20260504024520 16 243 0.0 0.0 0.00 0.00 0.00 28 1012.2
20260504024009 16 243 0.0 0.0 0.00 0.00 0.00 29 1012.2
20260504023507 17 243 0.0 0.0 0.00 0.00 0.00 29 1012.2
20260504023019 17 243 0.0 0.0 0.00 0.00 0.00 28 1012.2
20260504022505 17 243 0.0 0.0 0.00 0.00 0.00 28 1012.1
20260504022002 17 243 0.0 0.0 0.00 0.00 0.00 28 1012.1
20260504021510 18 243 0.0 0.0 0.00 0.00 0.00 28 1012.1
20260504021004 18 243 0.0 0.0 0.00 0.00 0.00 29 1012.1
20260504020504 18 243 0.0 3.2 0.00 0.00 0.00 28 1012.0
20260504020012 18 243 0.0 3.2 0.00 0.00 0.00 27 1012.0
20260504015504 19 243 0.0 3.2 0.00 0.00 0.00 27 1011.9
20260504015006 19 243 0.0 3.2 0.00 0.00 0.00 27 1011.9
20260504014504 20 243 0.0 0.0 0.00 0.00 0.00 26 1011.9
20260504014004 20 243 0.0 0.0 0.00 0.00 0.00 25 1011.9
20260504013506 20 243 0.0 0.0 0.00 0.00 0.00 26 1011.8
20260504013021 20 243 0.0 8.0 0.00 0.00 0.00 25 1011.8
20260504012503 20 243 0.0 8.0 0.00 0.00 0.00 25 1011.9
20260504012004 20 243 0.0 4.8 0.00 0.00 0.00 25 1012.0
20260504011521 20 243 0.0 12.9 0.00 0.00 0.00 24 1012.0
20260504011006 20 243 3.2 12.9 0.00 0.00 0.00 24 1012.0
20260504010508 20 249 3.2 9.7 0.00 0.00 0.00 24 1012.1
20260504010016 20 234 3.2 8.0 0.00 0.00 0.00 24 1012.1
20260504005505 20 245 3.2 8.0 0.00 0.00 0.00 24 1012.1
20260504005004 20 241 1.6 8.0 0.00 0.00 0.00 24 1012.2